Flag for China Weather past 2 weeks in Nanjing, Jiangsu, China

Now
37 °F

Mostly cloudy.


Feels Like: 31 °F
Forecast: 31 / 51 °F
Wind: 8 mph from Northwest

Location: Nanjing

Current Time: Mar 1, 2015 at 12:06:52 AM

Latest Report: Feb 28, 2015 at 11:00 PM


Visibility: N/A

Pressure: 30.39 "Hg

Humidity: 87%

Dew point: 34 °F

Location of NanjingLocation

Historic Weather in Nanjing — Graph

°F

Nanjing temperature yesterday

Maximum temperature yesterday: 39 °F (at 4:00 PM)
Minimum temperature yesterday: 36 °F (at 12:00 PM)
Average temperature yesterday: 38 °F

Past Weeks' High & Low Weather Summary

 TemperatureHumidityPressure
High72 °F (Feb 14, 2:00 PM)100% (Feb 14, 5:00 AM)30.42 "Hg (Feb 14, 5:00 AM)
Low30 °F (Feb 19, 3:00 AM)27% (Feb 14, 2:00 PM)29.89 "Hg (Feb 15, 3:00 PM)
Average46 °F83%30.14 "Hg
* Reported Feb 13 11:00 PM — Feb 28 11:00 PM, Nanjing, Weather by CustomWeather, © 2015

Note: Actual official high and low records may vary slightly from our data, if they occured in-between our weather recording intervals... More about our weather records

Advertising

Nanjing weather history for previous 24 hours

 ConditionsComfort  
Time TempWeatherWind HumidityBarometerVisibility
11:00 PM
Sat, Feb 28
37 °FMostly cloudy.8 mph87%30.39 "HgN/A
10:00 PM37 °FMostly cloudy.8 mph87%30.39 "HgN/A
9:00 PM39 °FMostly cloudy.6 mph87%30.33 "HgN/A
8:00 PM39 °FMostly cloudy.8 mph87%30.33 "Hg5 mi
7:00 PM39 °FMostly cloudy.3 mph87%30.30 "Hg5 mi
6:00 PM39 °FMostly cloudy.3 mph87%30.27 "HgN/A
5:00 PM39 °FMostly cloudy.3 mph87%30.24 "HgN/A
4:00 PM39 °FMostly cloudy.3 mph87%30.27 "Hg5 mi
3:00 PM37 °FLight rain. Fog.3 mph100%30.27 "Hg3 mi
2:00 PM37 °FLight rain. Mostly cloudy.6 mph93%30.27 "Hg5 mi
1:00 PM36 °FLight rain. Fog.8 mph100%30.24 "Hg2 mi
12:00 PM36 °FRain. Fog.3 mph100%30.27 "Hg2 mi
11:00 AM37 °FSleet. Fog.10 mph93%30.27 "Hg3 mi
10:00 AM37 °FLight rain. Fog.8 mph93%30.30 "Hg3 mi
9:00 AM37 °FLight rain. Mostly cloudy.8 mph93%30.30 "Hg4 mi
8:00 AM37 °FMostly cloudy.17 mph93%30.24 "Hg4 mi
7:00 AM37 °FLight rain. Low clouds.15 mph93%30.24 "Hg4 mi
6:00 AM37 °FLight rain. Mostly cloudy.15 mph93%30.24 "Hg4 mi
5:00 AM37 °FLight rain. Fog.15 mph93%30.24 "Hg3 mi
4:00 AM37 °FLight rain. Fog.15 mph93%30.24 "Hg2 mi
3:00 AM37 °FLight rain. Fog.15 mph93%30.27 "Hg2 mi
2:00 AM37 °FLight rain. Fog.13 mph93%30.27 "Hg2 mi
1:00 AM37 °FLight rain. Fog.13 mph93%30.30 "Hg2 mi
12:00 AM37 °FLight rain. Passing clouds.13 mph93%30.30 "Hg5 mi
Weather by CustomWeather, © 2015

See weather overviewHow to use our weather pages